This is the latest recevied weather packets stored in our database for station/object WP3OF-2. If no packets are shown the sender has not sent any weather packets the latest 10 day(s).
| Time | Temp. | Humidity | Pressure | Rain* | Wind** | Luminosity | Snow |
|---|---|---|---|---|---|---|---|
| 1777598312 | 18.33° C | 99% | 1023.7 hPa | 0 mm | - | 0 W/m² | - |
| 1777598009 | 18.33° C | 99% | 1023.7 hPa | 0 mm | - | 0 W/m² | - |
| 1777597703 | 18.33° C | 99% | 1024.1 hPa | 0 mm | - | 0 W/m² | - |
| 1777597400 | 18.33° C | 99% | 1023.7 hPa | 0 mm | - | 0 W/m² | - |
| 1777597095 | 18.33° C | 99% | 1023.7 hPa | 0 mm | - | 0 W/m² | - |
| 1777596792 | 18.33° C | 99% | 1023.7 hPa | 0 mm | - | 0 W/m² | - |
| 1777596487 | 18.33° C | 99% | 1023.7 hPa | 0 mm | - | 0 W/m² | - |
| 1777596185 | 18.33° C | 99% | 1023.4 hPa | 0 mm | - | 0 W/m² | - |
| 1777595882 | 18.33° C | 99% | 1023.4 hPa | 0 mm | - | 0 W/m² | - |
| 1777595581 | 18.33° C | 99% | 1023.4 hPa | 0 mm | - | 0 W/m² | - |
| 1777595278 | 18.33° C | 99% | 1023 hPa | 0 mm | - | 0 W/m² | - |
| 1777594974 | 17.78° C | 99% | 1023 hPa | 1.27 mm | - | 0 W/m² | - |
| 1777594670 | 17.78° C | 99% | 1023 hPa | 1.27 mm | - | 0 W/m² | - |
| 1777594368 | 17.78° C | 99% | 1022.6 hPa | 0 mm | - | 0 W/m² | - |
| 1777594063 | 17.78° C | 99% | 1022.6 hPa | 1.78 mm | - | 0 W/m² | - |
| 1777593759 | 17.78° C | 99% | 1023 hPa | 1.78 mm | - | 0 W/m² | - |
| 1777593456 | 18.33° C | 99% | 1023 hPa | 0 mm | - | 0 W/m² | - |
| 1777593154 | 18.89° C | 99% | 1022.6 hPa | 1.27 mm | - | 0 W/m² | - |
| 1777592853 | 18.89° C | 99% | 1022.3 hPa | 3.05 mm | - | 0 W/m² | - |
| 1777592550 | 18.89° C | 99% | 1022.6 hPa | 1.78 mm | - | 0 W/m² | - |
| 1777592245 | 18.89° C | 99% | 1022.6 hPa | 0 mm | - | 0 W/m² | - |
| 1777591942 | 18.89° C | 99% | 1022.6 hPa | 1.27 mm | - | 0 W/m² | - |
| 1777591638 | 18.89° C | 99% | 1022.6 hPa | 1.27 mm | - | 0 W/m² | - |
| 1777591335 | 18.89° C | 99% | 1022.6 hPa | 0 mm | - | 0 W/m² | - |
| 1777591030 | 18.89° C | 99% | 1022.6 hPa | 1.78 mm | - | 0 W/m² | - |
* Rain latest hour (hover to see other rain measurements)
** Current wind speed in m/s (hover to see current wind gust speed)